Weather History for Milwaukee Timmerman, WI

Change the Weather History Date:

Sunday, November 4, 2012

  Actual Average Record
Temperature  
Mean Temperature 35 °F -  
Max Temperature 44 °F 48 °F 75 °F (2008)
Min Temperature 26 °F 35 °F 11 °F (1951)
Degree Days  
Heating Degree Days 30    
Moisture  
Dew Point 25 °F    
Average Humidity 78    
Maximum Humidity 87    
Minimum Humidity 46    
Precipitation  
Precipitation 0.00 in - - ()
Sea Level Pressure  
Sea Level Pressure 30.22 in    
Wind  
Wind Speed 1 mph (NNW)    
Max Wind Speed 7 mph    
Max Gust Speed -    
Visibility 10 miles    
Events      
Averages and records for this station are not official NWS values.
T = Trace of Precipitation, MM = Missing Value Source: NWS Daily Summary

Daily Weather History Graph

Daily Weather History Graph

Search for Another Location

Airport:

Trip Planner

Search our weather history database for the weather conditions in past years. The results will help you decide how hot, cold, wet, or windy it might be!

Date:

Astronomy

Nov. 04, 2012 Rise Set
Actual Time 6:31 AM CST 4:39 PM CST
Civil Twilight 6:01 AM CST 5:09 PM CST
Nautical Twilight 5:27 AM CST 5:43 PM CST
Astronomical Twilight 4:54 AM CST 6:16 PM CST
Moon 9:16 PM CST (11/4) 11:16 AM CST (11/4)
Length of Visible Light 11h 07m
Length of Day
10h 08m
Waning Gibbous, 72% of the Moon is Illuminated
Nov 4
Waning Gibbous
Nov 6
Last Quarter
Nov 13
New
Nov 20
First Quarter
Nov 28
Full

Hourly Weather History & Observations

Time (CST) Temp. Windchill Dew Point Humidity Pressure Visibility Wind Dir Wind Speed Gust Speed Precip Events Conditions
12:15 AM 30.2 °F - 24.8 °F 80% 30.23 in 10.0 mi Calm Calm - N/A   Clear
12:35 AM 30.2 °F - 26.6 °F 86% 30.22 in 10.0 mi Calm Calm - N/A   Clear
12:55 AM 30.2 °F - 26.6 °F 86% 30.23 in 10.0 mi Calm Calm - N/A   Clear
1:15 AM 28.4 °F - 24.8 °F 86% 30.23 in 10.0 mi Calm Calm - N/A   Clear
1:35 AM 30.2 °F - 24.8 °F 80% 30.23 in 10.0 mi Calm Calm - N/A   Clear
1:55 AM 30.2 °F - 26.6 °F 86% 30.22 in 10.0 mi Calm Calm - N/A   Clear
1:15 AM 28.4 °F - 24.8 °F 86% 30.22 in 10.0 mi Calm Calm - N/A   Clear
1:35 AM 28.4 °F - 23.0 °F 80% 30.23 in 10.0 mi Calm Calm - N/A   Clear
1:55 AM 28.4 °F - 23.0 °F 80% 30.23 in 10.0 mi Calm Calm - N/A   Mostly Cloudy
2:15 AM 28.4 °F - 24.8 °F 86% 30.23 in 10.0 mi Calm Calm - N/A   Scattered Clouds
2:35 AM 28.4 °F - 24.8 °F 86% 30.23 in 10.0 mi Calm Calm - N/A   Scattered Clouds
2:55 AM 28.4 °F 24.6 °F 24.8 °F 86% 30.22 in 10.0 mi NNW 3.5 mph - N/A   Scattered Clouds
3:15 AM 28.4 °F - 23.0 °F 80% 30.22 in 10.0 mi Calm Calm - N/A   Clear
3:35 AM 28.4 °F 24.6 °F 24.8 °F 86% 30.23 in 10.0 mi West 3.5 mph - N/A   Clear
3:55 AM 28.4 °F - 24.8 °F 86% 30.23 in 10.0 mi Calm Calm - N/A   Mostly Cloudy
4:15 AM 28.4 °F - 23.0 °F 80% 30.24 in 10.0 mi Calm Calm - N/A   Overcast
4:35 AM 26.6 °F 22.6 °F 23.0 °F 86% 30.24 in 10.0 mi WNW 3.5 mph - N/A   Mostly Cloudy
4:55 AM 26.6 °F - 23.0 °F 86% 30.24 in 10.0 mi Calm Calm - N/A   Scattered Clouds
5:15 AM 28.4 °F 24.6 °F 23.0 °F 80% 30.23 in 10.0 mi WNW 3.5 mph - N/A   Clear
5:35 AM 28.4 °F - 23.0 °F 80% 30.23 in 10.0 mi Calm Calm - N/A   Clear
5:55 AM 28.4 °F - 23.0 °F 80% 30.23 in 10.0 mi Calm Calm - N/A   Scattered Clouds
6:45 AM 26.6 °F - 23.0 °F 86% 30.25 in 10.0 mi Calm Calm - N/A   Scattered Clouds
7:45 AM 30.2 °F 25.4 °F 26.6 °F 86% 30.25 in 10.0 mi NNW 4.6 mph - N/A   Clear
8:45 AM 33.8 °F 30.8 °F 26.6 °F 75% 30.25 in 10.0 mi North 3.5 mph - N/A   Clear
9:45 AM 39.2 °F 35.0 °F 26.6 °F 61% 30.24 in 10.0 mi North 5.8 mph - N/A   Clear
10:45 AM 42.8 °F - 26.6 °F 53% 30.24 in 10.0 mi Calm Calm - N/A   Clear
11:45 AM 42.8 °F - 26.6 °F 53% 30.22 in 10.0 mi Calm Calm - N/A   Scattered Clouds
12:45 PM 42.8 °F - 24.8 °F 49% 30.22 in 10.0 mi Calm Calm - N/A   Scattered Clouds
1:45 PM 44.6 °F - 24.8 °F 46% 30.20 in 10.0 mi Calm Calm - N/A   Scattered Clouds
2:45 PM 44.6 °F - 24.8 °F 46% 30.19 in 10.0 mi Calm Calm - N/A   Clear
3:50 PM 42.8 °F 38.6 °F 26.6 °F 53% 30.19 in 10.0 mi ENE 6.9 mph - N/A   Clear
4:50 PM 39.2 °F 35.0 °F 28.4 °F 65% 30.20 in 10.0 mi ENE 5.8 mph - N/A   Clear
5:45 PM 37.4 °F - 28.4 °F 70% 30.21 in 10.0 mi Calm Calm - N/A   Clear
6:50 PM 33.8 °F - 26.6 °F 75% 30.21 in 10.0 mi Calm Calm - N/A   Clear
7:45 PM 30.2 °F - 26.6 °F 86% 30.21 in 10.0 mi Calm Calm - N/A   Clear
8:15 PM 32.0 °F - 28.4 °F 87% 30.21 in 10.0 mi Calm Calm - N/A   Clear
8:35 PM 30.2 °F - 26.6 °F 86% 30.22 in 10.0 mi Calm Calm - N/A   Clear
8:45 PM 28.4 °F - 24.8 °F 86% 30.22 in 10.0 mi Calm Calm - N/A   Clear
8:55 PM 30.2 °F - 26.6 °F 86% 30.21 in 10.0 mi Calm Calm - N/A   Clear
9:15 PM 30.2 °F - 26.6 °F 86% 30.22 in 10.0 mi Calm Calm - N/A   Clear
9:35 PM 30.2 °F - 26.6 °F 86% 30.22 in 10.0 mi Calm Calm - N/A   Clear
9:55 PM 30.2 °F - 26.6 °F 86% 30.21 in 10.0 mi Calm Calm - N/A   Clear
10:15 PM 30.2 °F - 26.6 °F 86% 30.21 in 10.0 mi Calm Calm - N/A   Clear
10:35 PM 30.2 °F - 26.6 °F 86% 30.21 in 10.0 mi Calm Calm - N/A   Clear
10:55 PM 30.2 °F - 26.6 °F 86% 30.21 in 10.0 mi Calm Calm - N/A   Clear